User: anonymous
Location: Unspecified
(0.0000°N, 0.0000°E)
Time: 18:03:34
(UTC+02:00)
Language:

GPS 2-12 Rocket1 - Orbit

View from above orbital plane
View from above orbital plane
View from above satellite
View from above satellite

Ground track
Ground track

The orbit data is extracted from the following two-line orbital elements,

1 21891U 92009B   14240.64162996  .00001140  00000-0  91788-4 0  2766
2 21891 019.9974 351.3581 0049459 058.4911 302.0328 14.80971882214190
Epoch (UTC): 28 August 2014 15:23:56
Eccentricity: 0.0049459
inclination: 19.9974°
perigee height: 591 km
apogee height: 661 km
right ascension of ascending node: 351.3581°
argument of perigee: 58.4911°
revolutions per day: 14.80971882
mean anomaly at epoch: 302.0328°
orbit number at epoch: 21419

The dashed part of the orbit path shows where the satellite is in the earth's shadow,  

DLR